SCP
0 0 0 0 0 0 0 0 0 0 0 0 0 0 0 0 0 0 0 0 0 0 0 0 0 0 0 0 0 0 0 0 0 0 0 0 1 1
0 0 0 0 0 0 0 0 0 0 0 0 0 0 0 0 0 0 0 0 0 0 0 0 0 0 0 0 0 0 0 0 0 0 0 0 0 0
0 0 0 0 0 0 0 0 0 0 0 0 0 0 0 0 0 0 0 0 0 0 0 0 0 0 0 0 0 0 0 0 0 0 0 0 0 0
0 0 0 0 0 0 0 0 0 0 0 0 0 0 0 0 0 0 0 0 0 0 0 0 0 0 0 0 0 0 0 0 0 0 0 0 0 0
0 0 0 0 0 0 0 0 0 0 0 0 0 0 0 0 0 0 0 0 0 0 0 0 0 0 0 0 0 0 0 0 0 0 0 0 0 0
0 0 0 0 0 0 0 0 0 0 0 0 0 0 0 0 0 0 0 0 0 0 0 0 0 0 0 0 0 0 0 0 0 0 0 0 0 0
0 0 0 0 0 0 0 0 0 0 0 0 0 0 0 0 0 0 0 0 0 0 0 0 0 0 0 0 0 0 0 0 0 0 0 0 0 0
0 0 0 0 0 0 0 0 0 0 0 0 0 0 0 0 0 0 0 0 0 0 0 0 0 0 0 0 0 0 0 0 0 0 0 0 0 0
0 0 0 0 0 0 0 0 0 0 0 0 0 0 0 0 0 0 0 0 0 0 0 0 0 0 0 0 0 0 0 0 0 0 0 0 0 0
0 0 0 0 0 0 0 0 0 0 0 0 0 0 0 0 0 0 0 0 0 0 0 0 0 0 0 0 0 0 0 0 0 0 0 0 0 0
0 0 0 0 0 0 0 0 0 0 0 0 0 0 0 0 0 0 0 0 0 0 0 0 0 0 0 0 0 0 0 0 0 0 0 0 0 0
0 0 0 0 0 0 0 0 0 0 0 0 0 0 0 0 0 0 0 0 0 0 0 0 0 0 0 0 0 0 0 0 0 0 0 0 0 0
0 0 0 0 0 0 0 0 0 0 0 0 0 0 0 0 0 0 0 0 0 0 0 0 0 0 0 0 0 0 0 0 0 0 0 0 0 0
0 0 0 0 0 0 0 0 0 0 0 0 0 0 0 0 0 0 0 0 0 0 0 0 0 0 0 0 0 0 0 0 0 0 0 0 0 0
0 0 0 0 0 0 0 0 0 0 0 0 0 0 0 0 0 0 0 0 0 0 0 0 0 0 0 0 0 0 0 0 0 0 0 0 0 0
0 0 0 0 0 0 0 0 0 0 0 0 0 0 0 0 0 0 0 0 0 0 0 0 0 0 0 0 0 0 0 0 0 0 0 0 0 0
0 0 0 0 0 0 0 0 0 0 0 0 0 0 0 0 0 0 0 0 0 0 0 0 0 0 0 0 0 0 0 0 0 0 0 0 0 0
0 0 0 0 0 0 0 0 0 0 0 0 0 0 0 0 0 0 0 0 0 0 0 0 0 0 0 0 0 0 0 0 0 0 0 0 0 0
0 0 0 0 0 0 0 0 0 0 0 0 0 0 0 0 0 0 0 0 0 0 0 0 0 0 0 0 0 0 0 0 0 0 0 0 0 0
0 0 0 0 0 0 0 0 0 0 0 0 0 0 0 0 0 0 0 0 0 0 0 0 0 0 0 0 0 0 0 0 0 0 0 0 0 0
0 0 0 0 0 0 0 0 0 0 0 0 0 0 0 0 0 0 0 0 0 0 0 0 0 0 0 0 0 0 0 0 0 0 0 0 0 0
0 0 0 0 0 0 0 0 0 0 0 0 0 0 0 0 0 0 0 0 0 0 0 0 0 0 0 0 0 0 0 0 0 0 0 0 0 0
0 0 0 0 0 0 0 0 0 0 0 0 0 0 0 0 0 0 0 0 0 0 0 0 0 0 0 0 0 0 0 0 0 0 0 0 0 0
Wind_Speed
4 4 4 4 3 4 3 3 5 9 10 6 4 4 4 5 9 7 7 12 16 16 16 16 17 17 17 17 17 17 16 16 16 16 17 17 18 19
3 4 4 4 4 3 3 4 4 6 10 8 7 7 7 8 12 8 7 14 15 16 17 16 16 15 15 16 16 16 15 15 16 16 16 16 17 16
4 4 5 5 4 4 3 4 4 5 9 10 7 7 8 8 8 6 6 6 7 15 17 17 16 14 15 14 14 14 14 14 14 15 15 15 16 15
5 5 6 5 5 4 4 5 5 5 7 11 9 8 8 8 8 8 8 7 6 12 16 16 14 13 13 13 13 13 13 13 13 13 14 14 14 14
5 5 6 5 6 5 5 5 5 6 6 8 9 8 7 6 7 8 8 6 7 9 12 13 12 12 12 11 12 12 12 11 11 12 12 12 12 11
5 5 6 6 7 7 6 6 6 6 6 6 8 8 7 6 6 7 7 5 6 6 8 9 10 11 11 11 11 10 10 10 10 11 10 8 7 9
5 5 6 8 10 8 6 6 6 5 6 6 7 7 7 7 6 5 7 7 6 4 5 5 5 5 5 8 9 9 8 7 7 6 6 6 6 7
6 6 6 7 9 11 12 11 9 7 7 6 7 8 9 8 6 6 6 7 6 3 4 5 4 4 4 3 6 7 5 3 3 3 3 4 4 5
5 5 6 7 9 6 9 11 10 12 11 9 8 9 9 8 7 8 7 7 7 5 4 6 4 4 4 4 7 5 3 3 4 4 4 4 4 5
5 5 6 7 7 8 6 6 6 7 9 7 6 7 8 7 6 7 7 6 5 4 3 4 4 4 4 3 5 4 4 4 4 5 5 4 5 5
5 5 6 6 10 11 7 7 7 7 8 10 11 10 11 11 7 4 4 4 5 4 2 2 3 4 3 3 3 4 5 5 5 5 5 5 5 5
5 5 8 8 11 11 7 6 7 7 7 7 7 7 6 6 8 4 3 4 4 4 2 1 2 3 3 2 2 2 3 4 5 5 6 5 5 3
5 5 5 10 11 12 10 5 7 8 5 5 4 4 4 4 4 4 3 3 3 3 3 2 2 2 1 2 3 3 2 2 2 3 4 5 4 3
5 4 5 11 11 11 8 8 10 8 4 3 3 4 4 4 4 4 4 3 2 3 4 2 1 1 1 2 2 2 2 2 2 2 2 4 4 4
4 7 9 10 10 7 8 9 7 4 3 3 4 4 4 4 4 4 4 3 3 3 3 2 1 0 0 1 1 2 2 3 2 2 2 3 2 2
4 6 8 8 6 7 7 6 4 3 3 3 3 3 3 3 3 3 3 3 2 3 3 3 2 1 1 1 1 2 2 1 2 2 2 2 2 2
5 3 3 4 4 4 4 4 4 4 3 3 3 3 3 3 3 3 2 2 1 2 3 3 2 3 3 1 1 2 2 2 1 2 2 3 3 3
4 3 3 4 4 5 5 5 4 4 4 3 3 3 3 3 3 3 2 2 1 2 2 2 1 2 2 3 4 2 2 2 2 3 3 3 3 4
3 3 3 4 4 4 4 4 4 4 4 4 3 3 3 3 2 2 2 2 2 2 2 2 2 1 2 2 4 5 2 2 2 3 3 3 2 3
3 3 3 4 4 4 4 4 4 4 3 3 3 3 3 2 2 2 2 2 2 2 2 2 2 1 1 1 1 3 5 2 2 2 2 2 2 3
3 3 3 3 4 4 4 4 4 4 4 3 3 3 3 2 2 2 2 2 2 2 2 2 2 1 1 2 2 3 3 4 3 1 1 2 2 3
3 4 4 4 4 4 4 4 4 3 3 3 3 3 3 2 2 2 1 1 1 2 2 2 2 2 2 3 3 2 3 4 5 6 4 2 0 1
4 4 4 4 4 4 4 4 4 3 3 3 3 3 2 2 2 1 1 1 1 1 2 2 2 2 2 2 2 2 3 3 3 4 4 6 5 3
Wind_Direction
259 261 261 262 257 257 259 262 278 297 300 297 301 298 298 290 292 291 284 288 294 294 293 289 287 285 282 281 281 280 280 280 278 274 270 270 267 264
260 263 267 269 265 260 258 263 257 269 285 294 297 303 306 305 301 298 289 296 298 295 293 290 288 285 283 281 279 278 279 277 275 272 272 273 270 269
271 270 272 271 271 270 264 264 263 263 278 291 292 298 299 301 304 300 294 288 288 294 294 292 290 287 284 283 280 278 278 277 275 272 272 272 276 271
272 274 277 281 277 274 268 267 269 264 271 287 295 298 297 298 298 300 299 295 288 293 295 294 292 292 289 287 282 280 279 277 275 273 274 274 272 268
267 271 277 279 281 279 273 272 272 276 270 280 290 295 296 299 303 301 298 295 294 293 297 299 300 301 298 292 287 281 277 275 272 269 271 277 274 268
269 268 271 271 275 278 277 274 278 282 283 285 289 295 297 300 299 303 308 309 305 303 304 305 306 306 305 300 294 289 281 276 272 269 269 268 273 276
285 281 280 286 288 289 288 286 284 284 288 288 290 296 297 305 304 302 303 308 304 297 305 306 308 308 309 303 300 294 287 287 283 278 272 273 272 276
291 293 291 288 293 297 295 293 289 286 287 286 289 293 295 298 299 299 301 306 303 310 306 304 309 307 310 304 310 308 304 306 312 310 298 295 290 290
288 294 299 301 303 291 292 296 296 292 287 283 284 286 291 295 296 296 296 295 289 298 304 297 305 301 311 316 321 329 355 7 5 349 315 304 302 301
288 289 294 299 300 303 300 301 295 294 293 289 279 285 292 294 286 284 287 291 288 294 302 291 305 304 309 319 327 342 2 7 2 351 340 329 324 322
298 301 301 296 303 311 311 304 302 301 305 303 300 300 301 303 304 306 305 305 301 300 319 292 300 307 312 318 326 344 360 0 353 346 343 337 329 325
308 303 305 308 310 315 311 305 306 307 310 314 314 315 313 315 320 312 298 293 295 295 302 305 297 318 328 333 355 357 357 355 352 348 343 339 337 335
307 309 308 316 317 319 320 312 306 312 314 315 319 324 330 333 333 331 320 292 286 280 293 301 300 316 307 317 339 350 353 347 346 344 346 346 340 342
305 308 313 321 323 325 329 326 328 329 322 323 332 335 333 330 327 330 329 321 300 286 299 294 278 294 316 324 320 336 351 349 352 350 352 1 2 4
312 318 325 333 336 335 339 340 342 341 331 332 332 326 322 314 315 321 323 324 333 331 325 317 282 320 341 325 320 326 339 350 7 21 18 14 10 11
327 326 334 341 341 340 345 348 346 340 336 328 325 319 321 323 326 322 319 327 352 1 2 2 2 57 65 29 22 346 348 341 354 13 20 21 17 17
326 331 338 342 350 351 350 350 346 345 346 335 327 325 328 332 332 333 332 342 3 350 354 4 32 60 56 47 49 19 4 13 16 27 43 37 22 14
343 344 344 346 345 342 342 342 341 340 336 331 326 323 325 329 331 337 341 351 356 348 348 343 6 49 44 35 27 34 36 41 34 33 49 53 26 11
3 353 346 342 337 335 335 333 328 329 330 330 330 327 324 326 329 336 346 358 1 356 352 355 9 53 73 39 0 16 47 44 43 41 38 46 31 359
1 346 337 333 329 326 326 324 322 326 331 331 332 330 327 325 332 339 344 351 354 1 15 25 31 50 93 87 14 1 12 33 64 49 34 38 35 14
342 336 330 325 321 319 318 316 316 320 324 326 330 330 326 327 334 337 348 6 9 17 27 16 350 0 82 80 66 30 18 25 39 47 30 42 36 33
332 329 325 321 318 316 314 314 317 322 324 325 327 328 328 329 330 336 2 23 25 28 34 28 23 43 69 84 82 51 24 21 28 29 29 34 118 71
328 324 320 318 316 314 314 315 317 317 316 319 321 320 321 325 331 339 4 22 30 44 59 50 45 57 67 82 86 69 52 30 26 35 34 32 49 69